QPF
0.00 0.00 0.01 0.01 0.04 0.09 0.10 0.09 0.08 0.11 0.16 0.22 0.20 0.15 0.11 0.08 0.06 0.04 0.04 0.02 0.02 0.03 0.05 0.06 0.06 0.04 0.05 0.06 0.06 0.08 0.10 0.09 0.06 0.09 0.12 0.09 0.03 0.03 0.02 0.01 0.01 0.02 0.03
0.00 0.01 0.01 0.02 0.05 0.10 0.12 0.11 0.09 0.11 0.14 0.19 0.20 0.17 0.15 0.11 0.08 0.07 0.08 0.04 0.03 0.04 0.05 0.06 0.05 0.06 0.07 0.06 0.07 0.08 0.09 0.08 0.07 0.08 0.13 0.14 0.14 0.09 0.03 0.02 0.01 0.02 0.02
0.00 0.01 0.01 0.03 0.05 0.07 0.09 0.12 0.13 0.15 0.18 0.19 0.18 0.16 0.15 0.14 0.13 0.11 0.11 0.07 0.05 0.04 0.05 0.06 0.06 0.06 0.05 0.07 0.07 0.06 0.09 0.10 0.08 0.05 0.07 0.12 0.16 0.16 0.07 0.03 0.01 0.02 0.02
0.01 0.01 0.02 0.03 0.04 0.05 0.06 0.12 0.16 0.18 0.19 0.18 0.20 0.18 0.13 0.11 0.13 0.11 0.10 0.09 0.08 0.07 0.06 0.06 0.06 0.07 0.06 0.09 0.05 0.06 0.07 0.10 0.09 0.08 0.04 0.05 0.10 0.15 0.15 0.09 0.04 0.04 0.04
0.01 0.01 0.02 0.04 0.05 0.04 0.06 0.09 0.12 0.14 0.14 0.15 0.18 0.19 0.15 0.14 0.15 0.14 0.15 0.12 0.10 0.09 0.06 0.07 0.09 0.10 0.08 0.09 0.08 0.11 0.08 0.07 0.07 0.09 0.07 0.07 0.08 0.07 0.10 0.11 0.09 0.08 0.07
0.00 0.01 0.02 0.05 0.05 0.03 0.04 0.06 0.08 0.09 0.10 0.11 0.13 0.13 0.14 0.17 0.19 0.17 0.16 0.12 0.13 0.11 0.08 0.08 0.11 0.09 0.11 0.12 0.11 0.11 0.10 0.10 0.09 0.08 0.07 0.08 0.08 0.07 0.09 0.09 0.09 0.09 0.10
0.00 0.01 0.03 0.05 0.03 0.03 0.04 0.05 0.06 0.07 0.09 0.10 0.11 0.10 0.12 0.13 0.13 0.12 0.12 0.12 0.11 0.12 0.12 0.11 0.12 0.10 0.12 0.10 0.10 0.11 0.10 0.10 0.10 0.08 0.08 0.07 0.04 0.05 0.08 0.10 0.11 0.12 0.11
0.02 0.03 0.05 0.03 0.03 0.03 0.04 0.05 0.06 0.08 0.10 0.11 0.11 0.11 0.10 0.11 0.11 0.12 0.11 0.11 0.10 0.11 0.10 0.09 0.10 0.10 0.09 0.09 0.13 0.11 0.11 0.11 0.10 0.09 0.11 0.10 0.06 0.05 0.06 0.09 0.13 0.15 0.14
0.02 0.03 0.02 0.01 0.01 0.03 0.05 0.05 0.06 0.09 0.11 0.12 0.11 0.11 0.11 0.12 0.13 0.14 0.12 0.10 0.10 0.11 0.10 0.08 0.11 0.12 0.11 0.11 0.13 0.13 0.12 0.14 0.11 0.11 0.12 0.10 0.07 0.06 0.06 0.08 0.12 0.16 0.16
0.01 0.03 0.01 0.00 0.00 0.02 0.04 0.05 0.07 0.09 0.11 0.12 0.10 0.09 0.11 0.11 0.13 0.13 0.14 0.12 0.12 0.12 0.11 0.11 0.12 0.15 0.16 0.15 0.16 0.15 0.14 0.14 0.14 0.12 0.12 0.12 0.09 0.09 0.09 0.09 0.11 0.13 0.15
0.00 0.02 0.02 0.00 0.00 0.01 0.03 0.04 0.06 0.07 0.08 0.10 0.09 0.11 0.11 0.11 0.11 0.11 0.12 0.13 0.11 0.11 0.10 0.10 0.12 0.13 0.14 0.14 0.16 0.14 0.14 0.15 0.15 0.12 0.11 0.11 0.12 0.11 0.10 0.11 0.11 0.12 0.14
0.00 0.00 0.02 0.02 0.01 0.02 0.02 0.03 0.04 0.04 0.07 0.09 0.09 0.10 0.10 0.10 0.09 0.09 0.10 0.12 0.11 0.09 0.09 0.08 0.08 0.08 0.09 0.11 0.14 0.16 0.18 0.18 0.16 0.15 0.16 0.15 0.13 0.14 0.13 0.13 0.11 0.11 0.13
0.00 0.01 0.02 0.02 0.01 0.01 0.01 0.02 0.03 0.04 0.04 0.07 0.09 0.09 0.11 0.09 0.07 0.08 0.09 0.10 0.11 0.11 0.09 0.08 0.09 0.11 0.12 0.14 0.14 0.14 0.14 0.16 0.16 0.16 0.15 0.14 0.12 0.12 0.11 0.10 0.10 0.10 0.12
0.00 0.01 0.01 0.01 0.01 0.01 0.01 0.02 0.02 0.03 0.04 0.07 0.09 0.09 0.09 0.08 0.08 0.09 0.11 0.10 0.10 0.11 0.11 0.09 0.09 0.11 0.12 0.11 0.10 0.09 0.10 0.12 0.11 0.10 0.10 0.11 0.10 0.11 0.12 0.11 0.12 0.13 0.15
0.00 0.00 0.01 0.02 0.01 0.01 0.01 0.01 0.02 0.02 0.03 0.05 0.05 0.06 0.07 0.07 0.08 0.09 0.10 0.09 0.07 0.08 0.09 0.09 0.11 0.11 0.09 0.08 0.08 0.08 0.08 0.09 0.09 0.09 0.08 0.07 0.08 0.09 0.09 0.08 0.08 0.09 0.11
0.00 0.00 0.01 0.01 0.02 0.02 0.02 0.01 0.02 0.03 0.05 0.06 0.07 0.09 0.10 0.09 0.07 0.07 0.07 0.05 0.06 0.07 0.07 0.06 0.07 0.09 0.07 0.10 0.09 0.08 0.09 0.09 0.08 0.08 0.08 0.07 0.07 0.06 0.05 0.05 0.05 0.07 0.08
0.00 0.00 0.00 0.01 0.02 0.03 0.04 0.04 0.03 0.03 0.05 0.06 0.08 0.10 0.09 0.06 0.04 0.04 0.03 0.03 0.04 0.05 0.07 0.06 0.06 0.05 0.05 0.07 0.06 0.06 0.07 0.09 0.08 0.07 0.07 0.05 0.04 0.04 0.04 0.04 0.05 0.05 0.05
0.00 0.00 0.01 0.01 0.01 0.03 0.03 0.04 0.05 0.06 0.06 0.04 0.05 0.05 0.05 0.04 0.03 0.04 0.04 0.04 0.04 0.04 0.05 0.06 0.06 0.05 0.04 0.03 0.02 0.03 0.05 0.06 0.05 0.04 0.04 0.04 0.03 0.03 0.03 0.03 0.02 0.02 0.02
0.01 0.01 0.01 0.01 0.02 0.04 0.05 0.04 0.06 0.06 0.05 0.04 0.04 0.04 0.03 0.03 0.04 0.05 0.08 0.08 0.06 0.05 0.05 0.05 0.05 0.05 0.04 0.03 0.02 0.02 0.02 0.03 0.03 0.02 0.02 0.02 0.02 0.02 0.02 0.02 0.02 0.02 0.02
0.02 0.02 0.01 0.02 0.02 0.03 0.03 0.02 0.03 0.04 0.04 0.05 0.05 0.06 0.05 0.04 0.04 0.05 0.06 0.08 0.05 0.05 0.05 0.05 0.04 0.05 0.04 0.02 0.01 0.01 0.01 0.02 0.02 0.02 0.01 0.01 0.01 0.01 0.01 0.01 0.01 0.01 0.02
0.01 0.01 0.01 0.03 0.03 0.02 0.03 0.02 0.02 0.02 0.03 0.05 0.05 0.06 0.05 0.05 0.04 0.04 0.04 0.05 0.04 0.04 0.04 0.04 0.04 0.03 0.02 0.02 0.02 0.01 0.01 0.02 0.02 0.02 0.02 0.01 0.01 0.01 0.01 0.00 0.01 0.01 0.01
0.02 0.02 0.02 0.03 0.04 0.04 0.04 0.03 0.03 0.02 0.03 0.04 0.04 0.06 0.05 0.05 0.04 0.04 0.04 0.04 0.03 0.02 0.03 0.03 0.02 0.02 0.01 0.01 0.02 0.01 0.02 0.02 0.02 0.02 0.01 0.01 0.01 0.01 0.01 0.01 0.01 0.01 0.01
0.02 0.01 0.02 0.02 0.03 0.04 0.05 0.04 0.04 0.03 0.03 0.03 0.04 0.04 0.04 0.05 0.04 0.04 0.04 0.04 0.03 0.03 0.03 0.02 0.02 0.02 0.01 0.01 0.01 0.01 0.01 0.02 0.02 0.02 0.03 0.03 0.02 0.01 0.01 0.02 0.02 0.02 0.01
0.02 0.02 0.03 0.03 0.03 0.04 0.04 0.04 0.04 0.03 0.03 0.03 0.04 0.05 0.05 0.05 0.04 0.03 0.03 0.03 0.03 0.03 0.03 0.03 0.03 0.02 0.02 0.02 0.02 0.01 0.02 0.02 0.02 0.03 0.03 0.03 0.03 0.03 0.03 0.03 0.03 0.02 0.02
0.02 0.03 0.05 0.04 0.04 0.04 0.04 0.04 0.03 0.03 0.03 0.04 0.05 0.04 0.04 0.03 0.04 0.03 0.02 0.02 0.03 0.03 0.04 0.04 0.03 0.02 0.02 0.02 0.02 0.02 0.02 0.02 0.03 0.04 0.04 0.04 0.04 0.04 0.04 0.04 0.04 0.03 0.03
0.01 0.02 0.03 0.04 0.04 0.05 0.05 0.05 0.05 0.04 0.03 0.02 0.03 0.02 0.02 0.02 0.02 0.02 0.02 0.03 0.03 0.04 0.04 0.04 0.03 0.03 0.03 0.03 0.03 0.02 0.02 0.03 0.04 0.04 0.04 0.05 0.05 0.06 0.06 0.04 0.03 0.02 0.01
MSLP
1010.09 1010.88 1011.60 1012.25 1012.82 1013.33 1013.78 1014.21 1014.60 1014.97 1015.29 1015.57 1015.78 1015.93 1016.03 1016.08 1016.12 1016.17 1016.24 1016.36 1016.53 1016.74 1016.98 1017.25 1017.53 1017.79 1018.05 1018.30 1018.55 1018.79 1019.02 1019.26 1019.47 1019.66 1019.81 1019.90 1019.94 1019.90 1019.82 1019.70 1019.57 1019.48 1019.43
1010.02 1010.83 1011.57 1012.21 1012.76 1013.23 1013.64 1014.03 1014.40 1014.77 1015.12 1015.44 1015.71 1015.90 1016.02 1016.08 1016.09 1016.10 1016.12 1016.18 1016.31 1016.50 1016.75 1017.03 1017.33 1017.63 1017.92 1018.19 1018.43 1018.67 1018.90 1019.13 1019.35 1019.54 1019.70 1019.81 1019.85 1019.81 1019.70 1019.53 1019.34 1019.16 1019.02
1009.82 1010.65 1011.41 1012.06 1012.61 1013.06 1013.44 1013.81 1014.17 1014.55 1014.94 1015.30 1015.62 1015.86 1016.02 1016.09 1016.09 1016.06 1016.04 1016.06 1016.14 1016.30 1016.54 1016.82 1017.14 1017.45 1017.75 1018.02 1018.26 1018.49 1018.70 1018.91 1019.11 1019.31 1019.48 1019.61 1019.66 1019.63 1019.52 1019.33 1019.10 1018.85 1018.63
1009.51 1010.36 1011.16 1011.84 1012.40 1012.86 1013.24 1013.60 1013.97 1014.35 1014.76 1015.17 1015.53 1015.82 1016.01 1016.10 1016.11 1016.06 1016.01 1015.98 1016.02 1016.15 1016.35 1016.62 1016.93 1017.24 1017.53 1017.79 1018.02 1018.22 1018.41 1018.60 1018.79 1018.99 1019.17 1019.31 1019.39 1019.40 1019.30 1019.12 1018.88 1018.60 1018.33
1009.12 1010.01 1010.85 1011.58 1012.18 1012.67 1013.07 1013.43 1013.80 1014.19 1014.62 1015.04 1015.44 1015.76 1015.98 1016.10 1016.11 1016.05 1015.98 1015.92 1015.92 1016.00 1016.17 1016.40 1016.68 1016.98 1017.25 1017.49 1017.70 1017.88 1018.04 1018.20 1018.38 1018.58 1018.77 1018.94 1019.07 1019.12 1019.07 1018.93 1018.71 1018.43 1018.13
1008.70 1009.62 1010.51 1011.31 1011.97 1012.50 1012.93 1013.31 1013.68 1014.07 1014.49 1014.91 1015.32 1015.66 1015.90 1016.03 1016.05 1015.99 1015.90 1015.82 1015.78 1015.82 1015.95 1016.14 1016.39 1016.64 1016.89 1017.10 1017.28 1017.43 1017.57 1017.71 1017.88 1018.07 1018.28 1018.49 1018.67 1018.78 1018.81 1018.74 1018.58 1018.34 1018.06
1008.28 1009.23 1010.18 1011.05 1011.77 1012.36 1012.82 1013.21 1013.58 1013.95 1014.35 1014.76 1015.14 1015.48 1015.73 1015.87 1015.90 1015.85 1015.75 1015.65 1015.59 1015.59 1015.67 1015.82 1016.02 1016.24 1016.44 1016.62 1016.77 1016.89 1017.00 1017.12 1017.28 1017.47 1017.69 1017.94 1018.17 1018.36 1018.48 1018.51 1018.44 1018.29 1018.06
1007.91 1008.87 1009.86 1010.78 1011.57 1012.20 1012.70 1013.11 1013.46 1013.82 1014.18 1014.55 1014.91 1015.23 1015.47 1015.61 1015.65 1015.61 1015.52 1015.42 1015.34 1015.31 1015.35 1015.46 1015.61 1015.78 1015.94 1016.08 1016.18 1016.27 1016.34 1016.44 1016.57 1016.75 1016.98 1017.26 1017.54 1017.81 1018.02 1018.17 1018.22 1018.18 1018.05
1007.59 1008.55 1009.55 1010.50 1011.33 1012.01 1012.54 1012.96 1013.31 1013.64 1013.97 1014.30 1014.62 1014.92 1015.15 1015.29 1015.35 1015.33 1015.26 1015.16 1015.09 1015.05 1015.06 1015.13 1015.23 1015.34 1015.45 1015.53 1015.58 1015.62 1015.65 1015.70 1015.79 1015.95 1016.17 1016.45 1016.77 1017.10 1017.40 1017.66 1017.84 1017.93 1017.94
1007.34 1008.25 1009.24 1010.19 1011.04 1011.74 1012.30 1012.74 1013.10 1013.42 1013.73 1014.03 1014.33 1014.61 1014.83 1014.99 1015.07 1015.08 1015.04 1014.98 1014.91 1014.87 1014.87 1014.90 1014.95 1015.02 1015.06 1015.08 1015.07 1015.03 1015.00 1014.98 1015.02 1015.12 1015.30 1015.56 1015.88 1016.24 1016.62 1016.97 1017.27 1017.50 1017.65
1007.16 1007.99 1008.92 1009.84 1010.68 1011.40 1011.98 1012.46 1012.84 1013.18 1013.49 1013.80 1014.09 1014.37 1014.61 1014.79 1014.90 1014.96 1014.97 1014.95 1014.92 1014.89 1014.88 1014.89 1014.90 1014.90 1014.88 1014.82 1014.73 1014.62 1014.49 1014.39 1014.34 1014.36 1014.47 1014.67 1014.96 1015.32 1015.73 1016.14 1016.53 1016.87 1017.15
1007.06 1007.77 1008.59 1009.44 1010.25 1010.97 1011.59 1012.11 1012.54 1012.93 1013.29 1013.63 1013.96 1014.26 1014.53 1014.75 1014.92 1015.03 1015.10 1015.13 1015.14 1015.14 1015.14 1015.13 1015.10 1015.05 1014.96 1014.83 1014.65 1014.44 1014.22 1014.02 1013.87 1013.79 1013.81 1013.93 1014.15 1014.47 1014.86 1015.28 1015.72 1016.14 1016.51
1007.04 1007.59 1008.27 1009.02 1009.77 1010.48 1011.13 1011.71 1012.23 1012.70 1013.14 1013.55 1013.94 1014.30 1014.62 1014.90 1015.13 1015.31 1015.44 1015.53 1015.59 1015.62 1015.63 1015.62 1015.56 1015.47 1015.32 1015.11 1014.86 1014.56 1014.25 1013.95 1013.70 1013.52 1013.43 1013.45 1013.59 1013.83 1014.16 1014.56 1014.99 1015.43 1015.86
1007.12 1007.48 1007.98 1008.60 1009.27 1009.96 1010.64 1011.29 1011.91 1012.49 1013.04 1013.55 1014.03 1014.47 1014.86 1015.20 1015.49 1015.73 1015.92 1016.07 1016.18 1016.25 1016.28 1016.27 1016.20 1016.08 1015.88 1015.63 1015.31 1014.95 1014.58 1014.20 1013.87 1013.60 1013.42 1013.35 1013.39 1013.54 1013.79 1014.12 1014.50 1014.91 1015.33
1007.30 1007.45 1007.76 1008.21 1008.78 1009.44 1010.14 1010.87 1011.59 1012.30 1012.97 1013.60 1014.17 1014.70 1015.16 1015.56 1015.90 1016.19 1016.44 1016.63 1016.79 1016.90 1016.96 1016.96 1016.90 1016.76 1016.56 1016.28 1015.94 1015.56 1015.15 1014.74 1014.37 1014.05 1013.81 1013.67 1013.63 1013.69 1013.85 1014.09 1014.38 1014.72 1015.08
1007.60 1007.52 1007.62 1007.90 1008.36 1008.96 1009.67 1010.46 1011.28 1012.10 1012.90 1013.64 1014.31 1014.91 1015.43 1015.88 1016.27 1016.60 1016.87 1017.11 1017.30 1017.44 1017.53 1017.56 1017.52 1017.41 1017.22 1016.96 1016.64 1016.27 1015.88 1015.49 1015.12 1014.81 1014.55 1014.38 1014.29 1014.28 1014.36 1014.50 1014.69 1014.93 1015.21
1008.01 1007.70 1007.58 1007.69 1008.03 1008.56 1009.27 1010.10 1011.00 1011.92 1012.81 1013.64 1014.39 1015.05 1015.62 1016.10 1016.50 1016.85 1017.15 1017.40 1017.62 1017.79 1017.92 1017.99 1017.99 1017.91 1017.77 1017.56 1017.30 1016.99 1016.66 1016.34 1016.04 1015.77 1015.55 1015.39 1015.29 1015.25 1015.26 1015.32 1015.42 1015.55 1015.72
1008.50 1007.98 1007.68 1007.62 1007.83 1008.30 1008.97 1009.82 1010.76 1011.75 1012.71 1013.60 1014.40 1015.10 1015.69 1016.17 1016.58 1016.93 1017.23 1017.49 1017.73 1017.93 1018.09 1018.20 1018.26 1018.25 1018.17 1018.04 1017.86 1017.65 1017.42 1017.20 1016.99 1016.81 1016.67 1016.56 1016.49 1016.45 1016.43 1016.44 1016.46 1016.50 1016.57
1009.05 1008.36 1007.90 1007.70 1007.80 1008.18 1008.82 1009.66 1010.62 1011.63 1012.62 1013.55 1014.37 1015.07 1015.66 1016.14 1016.54 1016.87 1017.17 1017.44 1017.69 1017.91 1018.11 1018.27 1018.39 1018.45 1018.45 1018.41 1018.33 1018.22 1018.10 1017.99 1017.90 1017.82 1017.77 1017.74 1017.71 1017.70 1017.68 1017.66 1017.64 1017.62 1017.61
1009.61 1008.81 1008.22 1007.92 1007.93 1008.24 1008.84 1009.64 1010.59 1011.60 1012.60 1013.52 1014.34 1015.04 1015.61 1016.07 1016.45 1016.78 1017.07 1017.34 1017.61 1017.86 1018.10 1018.31 1018.48 1018.61 1018.69 1018.73 1018.74 1018.72 1018.70 1018.69 1018.69 1018.71 1018.74 1018.78 1018.81 1018.84 1018.84 1018.82 1018.78 1018.73 1018.68
1010.13 1009.27 1008.62 1008.26 1008.20 1008.47 1009.01 1009.78 1010.70 1011.68 1012.66 1013.56 1014.36 1015.04 1015.60 1016.05 1016.42 1016.74 1017.04 1017.33 1017.61 1017.90 1018.18 1018.43 1018.66 1018.84 1018.98 1019.08 1019.15 1019.20 1019.25 1019.30 1019.36 1019.44 1019.52 1019.61 1019.69 1019.74 1019.77 1019.77 1019.74 1019.69 1019.62
1010.56 1009.71 1009.05 1008.67 1008.58 1008.81 1009.31 1010.04 1010.91 1011.86 1012.79 1013.67 1014.45 1015.11 1015.66 1016.11 1016.49 1016.82 1017.14 1017.46 1017.78 1018.10 1018.42 1018.72 1018.98 1019.21 1019.38 1019.52 1019.62 1019.69 1019.76 1019.82 1019.90 1019.99 1020.09 1020.19 1020.28 1020.35 1020.40 1020.42 1020.41 1020.38 1020.34
1010.87 1010.07 1009.45 1009.08 1009.00 1009.21 1009.68 1010.35 1011.18 1012.07 1012.97 1013.82 1014.57 1015.23 1015.78 1016.25 1016.65 1017.02 1017.38 1017.74 1018.11 1018.48 1018.85 1019.18 1019.48 1019.73 1019.92 1020.06 1020.15 1020.21 1020.25 1020.29 1020.33 1020.38 1020.45 1020.53 1020.61 1020.68 1020.73 1020.77 1020.78 1020.78 1020.78
1011.05 1010.33 1009.78 1009.45 1009.38 1009.58 1010.02 1010.65 1011.42 1012.26 1013.12 1013.93 1014.67 1015.33 1015.90 1016.41 1016.86 1017.29 1017.70 1018.13 1018.56 1018.98 1019.39 1019.76 1020.08 1020.34 1020.53 1020.65 1020.71 1020.72 1020.71 1020.68 1020.66 1020.65 1020.66 1020.68 1020.72 1020.77 1020.82 1020.86 1020.90 1020.93 1020.96
1011.10 1010.47 1010.00 1009.72 1009.67 1009.86 1010.26 1010.84 1011.56 1012.35 1013.15 1013.94 1014.68 1015.35 1015.95 1016.51 1017.02 1017.52 1018.01 1018.51 1019.00 1019.48 1019.93 1020.33 1020.67 1020.93 1021.10 1021.20 1021.22 1021.18 1021.10 1021.00 1020.90 1020.81 1020.75 1020.71 1020.70 1020.72 1020.75 1020.79 1020.84 1020.90 1020.97
1011.06 1010.52 1010.12 1009.88 1009.84 1010.01 1010.37 1010.89 1011.54 1012.27 1013.04 1013.80 1014.53 1015.22 1015.87 1016.48 1017.07 1017.64 1018.21 1018.77 1019.33 1019.86 1020.35 1020.78 1021.12 1021.38 1021.54 1021.61 1021.59 1021.50 1021.36 1021.20 1021.04 1020.89 1020.77 1020.68 1020.63 1020.62 1020.64 1020.68 1020.74 1020.82 1020.91
Thickness
5824 5819 5811 5805 5798 5790 5784 5779 5774 5771 5767 5764 5761 5759 5759 5761 5762 5761 5760 5758 5757 5756 5756 5756 5754 5754 5753 5752 5751 5749 5747 5747 5749 5745 5742 5745 5748 5748 5748 5747 5746 5745 5743
5821 5814 5809 5803 5796 5788 5783 5778 5773 5770 5766 5764 5762 5761 5761 5761 5762 5762 5760 5759 5758 5757 5756 5755 5754 5754 5753 5752 5751 5749 5746 5747 5749 5743 5737 5733 5737 5743 5749 5748 5746 5746 5744
5820 5812 5806 5801 5795 5788 5783 5779 5773 5769 5767 5765 5762 5762 5760 5759 5759 5759 5759 5759 5758 5757 5757 5756 5755 5755 5754 5751 5750 5750 5746 5743 5746 5748 5740 5731 5727 5734 5743 5747 5748 5747 5745
5823 5814 5807 5800 5795 5790 5786 5780 5774 5770 5767 5764 5762 5760 5758 5756 5758 5759 5760 5760 5759 5758 5758 5757 5756 5755 5754 5752 5751 5751 5749 5745 5742 5746 5747 5745 5741 5732 5731 5739 5744 5746 5745
5824 5815 5809 5802 5797 5793 5787 5781 5775 5770 5768 5766 5764 5762 5760 5760 5760 5761 5759 5759 5759 5758 5758 5757 5756 5754 5754 5753 5752 5751 5749 5747 5745 5744 5744 5743 5743 5741 5732 5728 5735 5740 5742
5825 5817 5812 5804 5798 5794 5789 5783 5775 5771 5769 5767 5766 5764 5761 5760 5758 5758 5757 5757 5757 5758 5758 5758 5757 5755 5754 5753 5752 5751 5749 5747 5746 5745 5744 5741 5738 5737 5735 5730 5730 5731 5736
5823 5815 5808 5801 5796 5792 5787 5783 5777 5771 5770 5768 5766 5765 5763 5761 5759 5758 5758 5757 5756 5757 5758 5759 5757 5756 5755 5754 5752 5750 5748 5747 5746 5744 5743 5743 5742 5741 5738 5733 5730 5729 5731
5821 5814 5808 5801 5796 5792 5787 5783 5777 5773 5771 5769 5768 5767 5765 5763 5762 5761 5760 5759 5758 5759 5759 5759 5757 5756 5754 5753 5752 5750 5748 5747 5745 5744 5743 5742 5742 5742 5739 5734 5729 5724 5725
5820 5814 5808 5803 5798 5792 5788 5784 5779 5775 5773 5771 5769 5767 5765 5764 5763 5763 5762 5760 5760 5759 5759 5758 5756 5755 5753 5752 5750 5748 5747 5746 5744 5743 5742 5740 5740 5740 5739 5737 5733 5724 5717
5820 5814 5808 5804 5800 5795 5790 5786 5782 5776 5774 5771 5769 5768 5765 5765 5764 5762 5761 5760 5759 5758 5757 5756 5754 5753 5751 5750 5748 5746 5745 5743 5742 5741 5739 5737 5737 5736 5735 5734 5731 5728 5721
5820 5814 5808 5804 5801 5796 5791 5785 5781 5777 5773 5771 5769 5767 5765 5764 5762 5760 5759 5758 5757 5755 5754 5753 5751 5750 5748 5747 5744 5743 5741 5739 5738 5737 5735 5733 5732 5730 5729 5728 5726 5723 5719
5822 5817 5810 5805 5800 5796 5792 5786 5781 5777 5774 5771 5768 5765 5763 5762 5760 5758 5757 5756 5754 5753 5751 5749 5747 5746 5744 5743 5740 5737 5736 5734 5732 5731 5729 5727 5727 5724 5723 5721 5720 5718 5716
5820 5816 5809 5803 5799 5796 5792 5787 5782 5778 5775 5771 5766 5763 5761 5759 5757 5756 5754 5753 5751 5749 5747 5745 5743 5741 5739 5737 5735 5733 5731 5729 5727 5725 5723 5721 5719 5717 5716 5715 5713 5711 5710
5816 5812 5805 5802 5799 5795 5791 5787 5783 5779 5775 5770 5765 5761 5758 5756 5754 5753 5751 5749 5747 5744 5742 5740 5738 5735 5733 5731 5729 5727 5725 5723 5722 5720 5717 5715 5713 5711 5710 5708 5705 5704 5701
5811 5807 5802 5798 5795 5792 5789 5786 5782 5778 5774 5768 5763 5759 5756 5753 5751 5748 5746 5744 5742 5739 5737 5734 5732 5729 5727 5724 5722 5721 5719 5717 5714 5712 5710 5707 5705 5704 5702 5700 5698 5696 5693
5809 5806 5801 5796 5792 5789 5786 5783 5779 5775 5771 5765 5761 5757 5753 5749 5746 5744 5741 5739 5736 5734 5731 5728 5725 5722 5720 5717 5716 5714 5712 5709 5706 5703 5701 5699 5696 5694 5692 5690 5688 5686 5683
5807 5804 5800 5796 5791 5788 5784 5780 5777 5773 5768 5762 5758 5754 5750 5746 5743 5740 5737 5734 5731 5728 5725 5722 5719 5714 5710 5709 5708 5707 5704 5701 5698 5695 5692 5691 5688 5685 5683 5680 5678 5675 5672
5805 5801 5798 5795 5792 5789 5784 5779 5774 5769 5764 5759 5754 5750 5746 5742 5738 5735 5731 5729 5727 5723 5719 5715 5712 5708 5703 5702 5700 5698 5696 5692 5689 5685 5683 5679 5677 5675 5673 5670 5666 5662 5659
5802 5800 5798 5795 5790 5785 5780 5775 5769 5764 5759 5755 5751 5747 5743 5738 5733 5729 5726 5723 5720 5717 5713 5709 5705 5701 5696 5694 5692 5691 5687 5683 5679 5675 5672 5670 5666 5664 5662 5660 5655 5650 5646
5798 5795 5793 5789 5783 5779 5776 5769 5763 5759 5754 5751 5748 5744 5739 5734 5728 5724 5720 5717 5714 5709 5705 5701 5697 5694 5689 5685 5684 5683 5680 5675 5670 5666 5662 5659 5656 5653 5651 5648 5644 5639 5636
5790 5788 5784 5779 5775 5772 5768 5761 5757 5752 5750 5747 5743 5738 5733 5728 5724 5719 5715 5711 5707 5702 5697 5693 5689 5686 5681 5677 5675 5673 5672 5668 5663 5658 5653 5648 5645 5642 5640 5637 5633 5629 5625
5779 5777 5772 5768 5766 5764 5760 5753 5748 5747 5745 5740 5735 5730 5726 5722 5717 5712 5708 5704 5700 5695 5690 5685 5680 5676 5672 5668 5665 5663 5661 5658 5654 5649 5643 5638 5634 5631 5629 5625 5622 5619 5616
5766 5765 5761 5757 5756 5754 5751 5744 5741 5739 5735 5730 5725 5720 5717 5713 5709 5704 5700 5696 5692 5689 5684 5678 5673 5668 5663 5658 5655 5652 5650 5647 5643 5637 5632 5627 5623 5620 5618 5614 5611 5608 5606
5755 5754 5750 5746 5743 5743 5741 5737 5734 5731 5726 5720 5715 5711 5707 5703 5699 5696 5692 5688 5685 5681 5677 5672 5666 5661 5656 5650 5646 5643 5639 5634 5630 5626 5620 5617 5614 5610 5607 5603 5600 5597 5594
5745 5743 5739 5736 5733 5732 5730 5728 5726 5723 5718 5713 5708 5704 5699 5693 5687 5681 5676 5675 5669 5667 5667 5664 5660 5654 5647 5640 5636 5635 5631 5627 5621 5616 5612 5608 5605 5601 5597 5594 5590 5587 5584
5733 5731 5729 5726 5724 5722 5719 5718 5716 5714 5709 5704 5700 5696 5690 5684 5679 5672 5664 5658 5657 5654 5652 5650 5647 5641 5636 5630 5627 5623 5620 5616 5611 5608 5604 5600 5597 5593 5589 5585 5581 5577 5573